Time,TemperatureF,DewpointF,PressureIn,WindDirection,WindDirectionDegrees,WindSpeedMPH,WindSpeedGustMPH,Humidity,HourlyPrecipIn,Conditions,Clouds,dailyrainin,SoftwareType,DateUTC
2013-03-27 00:00:00,60.0,19.9,29.87,SE,136,0.0,0.0,21,0.00,,,0.00,Wunderground v.1.15,2013-03-27 06:00:00,
2013-03-27 00:05:00,59.7,19.6,29.86,SE,133,0.0,0.0,21,0.00,,,0.00,Wunderground v.1.15,2013-03-27 06:05:00,
2013-03-27 00:15:00,59.1,19.1,29.86,SE,134,0.0,0.0,21,0.00,,,0.00,Wunderground v.1.15,2013-03-27 06:15:00,
2013-03-27 00:20:00,59.0,19.1,29.86,SE,134,0.0,0.0,21,0.00,,,0.00,Wunderground v.1.15,2013-03-27 06:20:00,
2013-03-27 00:25:00,59.0,19.1,29.86,SE,134,0.0,0.0,21,0.00,,,0.00,Wunderground v.1.15,2013-03-27 06:25:00,
2013-03-27 00:30:00,58.6,19.8,29.86,SE,134,0.0,0.0,22,0.00,,,0.00,Wunderground v.1.15,2013-03-27 06:30:00,
2013-03-27 00:35:00,58.3,19.6,29.87,SE,134,0.0,0.0,22,0.00,,,0.00,Wunderground v.1.15,2013-03-27 06:35:00,
2013-03-27 00:40:00,58.0,19.3,29.87,SE,134,0.0,0.0,22,0.00,,,0.00,Wunderground v.1.15,2013-03-27 06:40:00,
2013-03-27 00:45:00,57.7,19.1,29.87,SE,134,0.0,0.0,22,0.00,,,0.00,Wunderground v.1.15,2013-03-27 06:45:00,
2013-03-27 00:50:00,57.3,18.7,29.87,SE,134,0.0,0.0,22,0.00,,,0.00,Wunderground v.1.15,2013-03-27 06:50:00,
2013-03-27 01:00:00,56.7,19.3,29.87,SE,134,0.0,0.0,23,0.00,,,0.00,Wunderground v.1.15,2013-03-27 07:00:00,
2013-03-27 01:05:00,56.4,19.0,29.87,SE,134,0.0,0.0,23,0.00,,,0.00,Wunderground v.1.15,2013-03-27 07:05:00,
2013-03-27 01:15:00,55.8,18.5,29.87,SE,134,0.0,0.0,23,0.00,,,0.00,Wunderground v.1.15,2013-03-27 07:15:00,
2013-03-27 01:20:00,55.5,18.2,29.87,SE,134,0.0,0.0,23,0.00,,,0.00,Wunderground v.1.15,2013-03-27 07:20:00,
2013-03-27 01:25:00,55.3,19.1,29.87,SE,134,0.0,0.0,24,0.00,,,0.00,Wunderground v.1.15,2013-03-27 07:25:00,
2013-03-27 01:30:00,55.0,18.8,29.87,SE,134,0.0,0.0,24,0.00,,,0.00,Wunderground v.1.15,2013-03-27 07:30:00,
2013-03-27 01:35:00,54.7,18.6,29.87,SE,134,0.0,0.0,24,0.00,,,0.00,Wunderground v.1.15,2013-03-27 07:35:00,
2013-03-27 01:40:00,54.4,18.3,29.88,SE,134,0.0,0.0,24,0.00,,,0.00,Wunderground v.1.15,2013-03-27 07:40:00,
2013-03-27 01:45:00,54.1,18.1,29.87,SE,134,0.0,0.0,24,0.00,,,0.00,Wunderground v.1.15,2013-03-27 07:45:00,
2013-03-27 01:50:00,53.8,17.8,29.87,SE,134,0.0,0.0,24,0.00,,,0.00,Wunderground v.1.15,2013-03-27 07:50:00,
2013-03-27 01:55:00,53.5,18.5,29.87,SE,134,0.0,0.0,25,0.00,,,0.00,Wunderground v.1.15,2013-03-27 07:55:00,
2013-03-27 02:00:00,53.2,18.2,29.87,SE,134,0.0,0.0,25,0.00,,,0.00,Wunderground v.1.15,2013-03-27 08:00:00,
2013-03-27 02:05:00,52.9,18.0,29.86,SE,134,0.0,0.0,25,0.00,,,0.00,Wunderground v.1.15,2013-03-27 08:05:00,
2013-03-27 02:15:00,52.3,17.5,29.87,SE,134,0.0,0.0,25,0.00,,,0.00,Wunderground v.1.15,2013-03-27 08:15:00,
2013-03-27 02:25:00,51.9,18.0,29.87,SE,134,0.0,0.0,26,0.00,,,0.00,Wunderground v.1.15,2013-03-27 08:25:00,
2013-03-27 02:30:00,51.7,17.9,29.87,SE,134,0.0,0.0,26,0.00,,,0.00,Wunderground v.1.15,2013-03-27 08:30:00,
2013-03-27 02:35:00,51.4,17.6,29.87,SE,134,0.0,0.0,26,0.00,,,0.00,Wunderground v.1.15,2013-03-27 08:35:00,
2013-03-27 02:40:00,51.1,18.2,29.86,SE,134,0.0,0.0,27,0.00,,,0.00,Wunderground v.1.15,2013-03-27 08:40:00,
2013-03-27 02:45:00,50.9,18.1,29.86,SE,134,0.0,0.0,27,0.00,,,0.00,Wunderground v.1.15,2013-03-27 08:45:00,
2013-03-27 02:50:00,50.6,17.8,29.86,SE,134,0.0,0.0,27,0.00,,,0.00,Wunderground v.1.15,2013-03-27 08:50:00,
2013-03-27 03:00:00,50.1,18.2,29.87,SE,134,0.0,0.0,28,0.00,,,0.00,Wunderground v.1.15,2013-03-27 09:00:00,
2013-03-27 03:05:00,49.9,18.0,29.86,SE,134,0.0,0.0,28,0.00,,,0.00,Wunderground v.1.15,2013-03-27 09:05:00,
2013-03-27 03:15:00,49.6,17.8,29.86,SE,134,0.0,0.0,28,0.00,,,0.00,Wunderground v.1.15,2013-03-27 09:15:00,
2013-03-27 03:20:00,49.4,18.4,29.86,SE,134,0.0,0.0,29,0.00,,,0.00,Wunderground v.1.15,2013-03-27 09:20:00,
2013-03-27 03:25:00,49.2,18.3,29.85,SE,134,0.0,0.0,29,0.00,,,0.00,Wunderground v.1.15,2013-03-27 09:25:00,
2013-03-27 03:30:00,49.0,18.1,29.85,SE,134,0.0,0.0,29,0.00,,,0.00,Wunderground v.1.15,2013-03-27 09:30:00,
2013-03-27 03:35:00,48.8,17.9,29.85,SE,134,0.0,0.0,29,0.00,,,0.00,Wunderground v.1.15,2013-03-27 09:35:00,
2013-03-27 03:40:00,48.6,17.7,29.85,SE,134,0.0,0.0,29,0.00,,,0.00,Wunderground v.1.15,2013-03-27 09:40:00,
2013-03-27 03:45:00,48.3,18.3,29.86,SE,134,0.0,0.0,30,0.00,,,0.00,Wunderground v.1.15,2013-03-27 09:45:00,
2013-03-27 03:50:00,48.1,18.1,29.86,SE,134,0.0,0.0,30,0.00,,,0.00,Wunderground v.1.15,2013-03-27 09:50:00,
2013-03-27 03:55:00,47.9,17.9,29.86,SE,134,0.0,0.0,30,0.00,,,0.00,Wunderground v.1.15,2013-03-27 09:55:00,
2013-03-27 04:05:00,47.5,18.3,29.85,SE,134,0.0,0.0,31,0.00,,,0.00,Wunderground v.1.15,2013-03-27 10:05:00,
2013-03-27 04:15:00,47.0,18.6,29.86,SE,134,0.0,0.0,32,0.00,,,0.00,Wunderground v.1.15,2013-03-27 10:15:00,
2013-03-27 04:20:00,46.8,18.5,29.86,SE,134,0.0,0.0,32,0.00,,,0.00,Wunderground v.1.15,2013-03-27 10:20:00,
2013-03-27 04:30:00,46.4,17.4,29.86,SE,134,0.0,0.0,31,0.00,,,0.00,Wunderground v.1.15,2013-03-27 10:30:00,
2013-03-27 04:35:00,46.1,17.1,29.87,SE,134,0.0,0.0,31,0.00,,,0.00,Wunderground v.1.15,2013-03-27 10:35:00,
2013-03-27 04:45:00,45.8,17.6,29.87,SE,134,0.0,0.0,32,0.00,,,0.00,Wunderground v.1.15,2013-03-27 10:45:00,
2013-03-27 04:50:00,45.6,17.4,29.87,SE,134,0.0,0.0,32,0.00,,,0.00,Wunderground v.1.15,2013-03-27 10:50:00,
2013-03-27 04:55:00,45.5,17.3,29.87,SE,134,0.0,0.0,32,0.00,,,0.00,Wunderground v.1.15,2013-03-27 10:55:00,
2013-03-27 05:00:00,45.3,17.1,29.88,SE,134,0.0,0.0,32,0.00,,,0.00,Wunderground v.1.15,2013-03-27 11:00:00,
2013-03-27 05:05:00,45.2,17.8,29.88,SE,134,0.0,0.0,33,0.00,,,0.00,Wunderground v.1.15,2013-03-27 11:05:00,
2013-03-27 05:15:00,45.0,18.3,29.88,SE,134,0.0,0.0,34,0.00,,,0.00,Wunderground v.1.15,2013-03-27 11:15:00,
2013-03-27 05:20:00,44.9,18.2,29.89,SE,134,0.0,0.0,34,0.00,,,0.00,Wunderground v.1.15,2013-03-27 11:20:00,
2013-03-27 05:25:00,44.8,18.1,29.89,SE,134,0.0,0.0,34,0.00,,,0.00,Wunderground v.1.15,2013-03-27 11:25:00,
2013-03-27 05:35:00,44.5,17.8,29.89,SE,134,0.0,0.0,34,0.00,,,0.00,Wunderground v.1.15,2013-03-27 11:35:00,
2013-03-27 05:40:00,44.5,17.8,29.89,SE,134,0.0,0.0,34,0.00,,,0.00,Wunderground v.1.15,2013-03-27 11:40:00,
2013-03-27 05:50:00,44.2,17.6,29.90,SE,134,0.0,0.0,34,0.00,,,0.00,Wunderground v.1.15,2013-03-27 11:50:00,
2013-03-27 05:55:00,44.1,17.5,29.90,SE,134,0.0,0.0,34,0.00,,,0.00,Wunderground v.1.15,2013-03-27 11:55:00,
2013-03-27 06:00:00,44.0,17.4,29.90,SE,134,0.0,0.0,34,0.00,,,0.00,Wunderground v.1.15,2013-03-27 12:00:00,
2013-03-27 06:05:00,43.8,17.2,29.91,SE,134,0.0,0.0,34,0.00,,,0.00,Wunderground v.1.15,2013-03-27 12:05:00,
2013-03-27 06:15:00,43.6,17.7,29.91,SE,134,0.0,0.0,35,0.00,,,0.00,Wunderground v.1.15,2013-03-27 12:15:00,
2013-03-27 06:20:00,43.5,17.6,29.91,SE,134,0.0,0.0,35,0.00,,,0.00,Wunderground v.1.15,2013-03-27 12:20:00,
2013-03-27 06:30:00,43.2,18.0,29.93,SE,134,0.0,0.0,36,0.00,,,0.00,Wunderground v.1.15,2013-03-27 12:30:00,
2013-03-27 06:35:00,43.1,17.9,29.93,SE,134,0.0,0.0,36,0.00,,,0.00,Wunderground v.1.15,2013-03-27 12:35:00,
2013-03-27 06:45:00,42.9,17.1,29.93,SE,134,0.0,0.0,35,0.00,,,0.00,Wunderground v.1.15,2013-03-27 12:45:00,
2013-03-27 06:55:00,42.7,17.6,29.94,SE,134,0.0,0.0,36,0.00,,,0.00,Wunderground v.1.15,2013-03-27 12:55:00,
2013-03-27 07:00:00,42.7,17.6,29.94,SE,134,0.0,0.0,36,0.00,,,0.00,Wunderground v.1.15,2013-03-27 13:00:00,
2013-03-27 07:05:00,42.6,17.5,29.95,SE,134,0.0,0.0,36,0.00,,,0.00,Wunderground v.1.15,2013-03-27 13:05:00,
2013-03-27 07:15:00,42.5,17.4,29.95,SE,134,0.0,0.0,36,0.00,,,0.00,Wunderground v.1.15,2013-03-27 13:15:00,
2013-03-27 07:25:00,42.5,18.0,29.95,SE,134,0.0,0.0,37,0.00,,,0.00,Wunderground v.1.15,2013-03-27 13:25:00,
2013-03-27 07:30:00,42.5,18.0,29.95,SE,134,0.0,0.0,37,0.00,,,0.00,Wunderground v.1.15,2013-03-27 13:30:00,
2013-03-27 07:40:00,42.7,18.8,29.96,SE,134,0.0,0.0,38,0.00,,,0.00,Wunderground v.1.15,2013-03-27 13:40:00,
2013-03-27 07:45:00,42.9,19.0,29.96,SE,134,0.0,0.0,38,0.00,,,0.00,Wunderground v.1.15,2013-03-27 13:45:00,
2013-03-27 07:50:00,43.2,19.9,29.96,SE,134,0.0,0.0,39,0.00,,,0.00,Wunderground v.1.15,2013-03-27 13:50:00,
2013-03-27 07:55:00,43.4,19.5,29.97,SE,134,0.0,0.0,38,0.00,,,0.00,Wunderground v.1.15,2013-03-27 13:55:00,
2013-03-27 08:00:00,43.8,19.8,29.97,SE,134,0.0,0.0,38,0.00,,,0.00,Wunderground v.1.15,2013-03-27 14:00:00,
2013-03-27 08:05:00,44.2,20.2,29.98,SE,134,0.0,0.0,38,0.00,,,0.00,Wunderground v.1.15,2013-03-27 14:05:00,
2013-03-27 08:15:00,45.1,20.3,29.98,SE,134,0.0,0.0,37,0.00,,,0.00,Wunderground v.1.15,2013-03-27 14:15:00,
2013-03-27 08:20:00,45.6,21.4,29.98,SE,134,0.0,0.0,38,0.00,,,0.00,Wunderground v.1.15,2013-03-27 14:20:00,
2013-03-27 08:25:00,45.9,21.1,29.98,SE,134,0.0,0.0,37,0.00,,,0.00,Wunderground v.1.15,2013-03-27 14:25:00,
2013-03-27 08:35:00,46.9,20.6,29.97,SE,134,0.0,0.0,35,0.00,,,0.00,Wunderground v.1.15,2013-03-27 14:35:00,
2013-03-27 08:40:00,47.4,21.1,29.97,SE,134,0.0,0.0,35,0.00,,,0.00,Wunderground v.1.15,2013-03-27 14:40:00,
2013-03-27 08:45:00,48.1,23.0,29.97,SE,134,0.0,0.0,37,0.00,,,0.00,Wunderground v.1.15,2013-03-27 14:45:00,
2013-03-27 08:50:00,48.8,23.0,29.97,SE,134,0.0,0.0,36,0.00,,,0.00,Wunderground v.1.15,2013-03-27 14:50:00,
2013-03-27 09:00:00,50.3,23.7,29.97,SE,134,0.0,0.0,35,0.00,,,0.00,Wunderground v.1.15,2013-03-27 15:00:00,
2013-03-27 09:05:00,51.3,23.1,29.96,SE,134,0.0,0.0,33,0.00,,,0.00,Wunderground v.1.15,2013-03-27 15:05:00,
2013-03-27 09:15:00,52.8,23.0,29.95,SE,134,0.0,0.0,31,0.00,,,0.00,Wunderground v.1.15,2013-03-27 15:15:00,
2013-03-27 09:20:00,53.6,22.9,29.96,SE,134,0.0,0.0,30,0.00,,,0.00,Wunderground v.1.15,2013-03-27 15:20:00,
2013-03-27 09:25:00,54.2,22.6,29.96,SE,134,0.0,0.0,29,0.00,,,0.00,Wunderground v.1.15,2013-03-27 15:25:00,
2013-03-27 09:30:00,54.9,23.2,29.95,SE,140,0.0,0.0,29,0.00,,,0.00,Wunderground v.1.15,2013-03-27 15:30:00,
2013-03-27 09:35:00,55.5,23.7,29.95,SE,140,0.0,0.0,29,0.00,,,0.00,Wunderground v.1.15,2013-03-27 15:35:00,
2013-03-27 09:40:00,56.2,23.5,29.95,SE,140,0.0,0.0,28,0.00,,,0.00,Wunderground v.1.15,2013-03-27 15:40:00,
2013-03-27 09:45:00,56.8,24.0,29.94,SE,140,0.0,0.0,28,0.00,,,0.00,Wunderground v.1.15,2013-03-27 15:45:00,
2013-03-27 09:50:00,57.3,23.6,29.94,SE,140,0.0,0.0,27,0.00,,,0.00,Wunderground v.1.15,2013-03-27 15:50:00,
2013-03-27 09:55:00,57.7,23.0,29.94,SE,140,0.0,0.0,26,0.00,,,0.00,Wunderground v.1.15,2013-03-27 15:55:00,
2013-03-27 10:05:00,58.6,22.8,29.94,SE,142,0.0,0.0,25,0.00,,,0.00,Wunderground v.1.15,2013-03-27 16:05:00,
2013-03-27 10:15:00,59.4,23.5,29.94,WSW,246,0.0,4.0,25,0.00,,,0.00,Wunderground v.1.15,2013-03-27 16:15:00,
2013-03-27 10:20:00,59.8,23.9,29.94,SE,138,0.0,0.0,25,0.00,,,0.00,Wunderground v.1.15,2013-03-27 16:20:00,
2013-03-27 10:25:00,60.2,23.2,29.94,ESE,115,0.0,0.0,24,0.00,,,0.00,Wunderground v.1.15,2013-03-27 16:25:00,
2013-03-27 10:30:00,60.6,23.6,29.93,SSW,202,0.0,0.0,24,0.00,,,0.00,Wunderground v.1.15,2013-03-27 16:30:00,
2013-03-27 10:35:00,61.1,24.0,29.93,SE,138,0.0,0.0,24,0.00,,,0.00,Wunderground v.1.15,2013-03-27 16:35:00,
2013-03-27 10:40:00,61.5,24.3,29.93,SE,132,0.0,2.0,24,0.00,,,0.00,Wunderground v.1.15,2013-03-27 16:40:00,
2013-03-27 10:45:00,61.9,23.6,29.93,WNW,294,0.0,2.0,23,0.00,,,0.00,Wunderground v.1.15,2013-03-27 16:45:00,
2013-03-27 10:50:00,62.5,24.2,29.93,SW,235,0.0,0.0,23,0.00,,,0.00,Wunderground v.1.15,2013-03-27 16:50:00,
2013-03-27 10:55:00,62.9,24.5,29.92,ESE,118,0.0,0.0,23,0.00,,,0.00,Wunderground v.1.15,2013-03-27 16:55:00,
2013-03-27 11:00:00,63.4,23.8,29.92,ESE,111,0.0,0.0,22,0.00,,,0.00,Wunderground v.1.15,2013-03-27 17:00:00,
2013-03-27 11:05:00,63.6,24.0,29.92,SSE,153,0.0,0.0,22,0.00,,,0.00,Wunderground v.1.15,2013-03-27 17:05:00,
2013-03-27 11:15:00,64.2,24.5,29.92,SW,214,0.0,0.0,22,0.00,,,0.00,Wunderground v.1.15,2013-03-27 17:15:00,
2013-03-27 11:25:00,64.6,24.9,29.92,ESE,107,0.0,0.0,22,0.00,,,0.00,Wunderground v.1.15,2013-03-27 17:25:00,
2013-03-27 11:30:00,64.8,25.0,29.92,SE,140,0.0,0.0,22,0.00,,,0.00,Wunderground v.1.15,2013-03-27 17:30:00,
2013-03-27 11:35:00,64.9,24.0,29.92,ESE,102,0.0,0.0,21,0.00,,,0.00,Wunderground v.1.15,2013-03-27 17:35:00,
2013-03-27 11:40:00,65.2,24.2,29.92,East,101,0.0,0.0,21,0.00,,,0.00,Wunderground v.1.15,2013-03-27 17:40:00,
2013-03-27 11:45:00,65.6,24.6,29.91,ESE,104,0.0,4.0,21,0.00,,,0.00,Wunderground v.1.15,2013-03-27 17:45:00,
2013-03-27 11:50:00,65.9,24.8,29.91,East,96,0.0,0.0,21,0.00,,,0.00,Wunderground v.1.15,2013-03-27 17:50:00,
2013-03-27 12:00:00,66.8,24.4,29.91,NE,38,0.0,0.0,20,0.00,,,0.00,Wunderground v.1.15,2013-03-27 18:00:00,
2013-03-27 12:05:00,67.2,24.7,29.92,SE,132,0.0,0.0,20,0.00,,,0.00,Wunderground v.1.15,2013-03-27 18:05:00,
2013-03-27 12:15:00,67.5,23.7,29.92,SE,126,0.0,0.0,19,0.00,,,0.00,Wunderground v.1.15,2013-03-27 18:15:00,
2013-03-27 12:25:00,67.8,24.0,29.92,East,92,0.0,0.0,19,0.00,,,0.00,Wunderground v.1.15,2013-03-27 18:25:00,
2013-03-27 12:30:00,67.9,24.1,29.92,SSE,159,0.0,0.0,19,0.00,,,0.00,Wunderground v.1.15,2013-03-27 18:30:00,
2013-03-27 12:40:00,68.8,24.8,29.90,ESE,115,0.0,0.0,19,0.00,,,0.00,Wunderground v.1.15,2013-03-27 18:40:00,
2013-03-27 12:45:00,69.2,23.9,29.90,North,360,0.0,0.0,18,0.00,,,0.00,Wunderground v.1.15,2013-03-27 18:45:00,
2013-03-27 12:50:00,69.2,23.9,29.90,WSW,244,0.0,0.0,18,0.00,,,0.00,Wunderground v.1.15,2013-03-27 18:50:00,
2013-03-27 12:55:00,69.0,23.7,29.90,SSW,204,0.0,0.0,18,0.00,,,0.00,Wunderground v.1.15,2013-03-27 18:55:00,
2013-03-27 13:05:00,70.1,24.6,29.91,WSW,241,0.0,0.0,18,0.00,,,0.00,Wunderground v.1.15,2013-03-27 19:05:00,
2013-03-27 13:15:00,70.9,25.2,29.90,ESE,119,0.0,0.0,18,0.00,,,0.00,Wunderground v.1.15,2013-03-27 19:15:00,
2013-03-27 13:20:00,71.3,25.6,29.90,ESE,110,0.0,0.0,18,0.00,,,0.00,Wunderground v.1.15,2013-03-27 19:20:00,
2013-03-27 13:25:00,71.6,25.8,29.90,SSW,197,0.0,1.0,18,0.00,,,0.00,Wunderground v.1.15,2013-03-27 19:25:00,
2013-03-27 13:35:00,72.2,24.9,29.89,West,273,0.0,0.0,17,0.00,,,0.00,Wunderground v.1.15,2013-03-27 19:35:00,
2013-03-27 13:45:00,72.3,25.0,29.89,SSW,194,0.0,0.0,17,0.00,,,0.00,Wunderground v.1.15,2013-03-27 19:45:00,
2013-03-27 13:50:00,72.6,25.3,29.87,South,182,0.0,0.0,17,0.00,,,0.00,Wunderground v.1.15,2013-03-27 19:50:00,
2013-03-27 13:55:00,73.1,25.7,29.87,ESE,121,0.0,0.0,17,0.00,,,0.00,Wunderground v.1.15,2013-03-27 19:55:00,
2013-03-27 14:00:00,73.6,24.6,29.87,WSW,248,0.0,0.0,16,0.00,,,0.00,Wunderground v.1.15,2013-03-27 20:00:00,
2013-03-27 14:05:00,73.9,24.8,29.88,WSW,257,0.0,0.0,16,0.00,,,0.00,Wunderground v.1.15,2013-03-27 20:05:00,
2013-03-27 14:15:00,74.9,25.6,29.87,SW,223,0.0,0.0,16,0.00,,,0.00,Wunderground v.1.15,2013-03-27 20:15:00,
2013-03-27 14:20:00,75.5,26.1,29.87,West,264,0.0,0.0,16,0.00,,,0.00,Wunderground v.1.15,2013-03-27 20:20:00,
2013-03-27 14:25:00,76.0,26.5,29.86,South,169,0.0,0.0,16,0.00,,,0.00,Wunderground v.1.15,2013-03-27 20:25:00,
2013-03-27 14:30:00,76.6,27.0,29.86,SW,232,0.0,0.0,16,0.00,,,0.00,Wunderground v.1.15,2013-03-27 20:30:00,
2013-03-27 14:40:00,77.3,26.0,29.85,West,276,0.0,0.0,15,0.00,,,0.00,Wunderground v.1.15,2013-03-27 20:40:00,
2013-03-27 14:50:00,77.6,26.3,29.84,SSW,205,0.0,0.0,15,0.00,,,0.00,Wunderground v.1.15,2013-03-27 20:50:00,
2013-03-27 14:55:00,78.0,26.6,29.84,East,89,0.0,0.0,15,0.00,,,0.00,Wunderground v.1.15,2013-03-27 20:55:00,
2013-03-27 15:00:00,78.0,26.6,29.84,ESE,110,1.0,3.0,15,0.00,,,0.00,Wunderground v.1.15,2013-03-27 21:00:00,
2013-03-27 15:05:00,77.8,26.4,29.85,SW,230,1.0,3.0,15,0.00,,,0.00,Wunderground v.1.15,2013-03-27 21:05:00,
2013-03-27 15:15:00,77.9,26.5,29.84,SE,139,0.0,4.0,15,0.00,,,0.00,Wunderground v.1.15,2013-03-27 21:15:00,
2013-03-27 15:20:00,77.3,26.0,29.84,ESE,110,0.0,0.0,15,0.00,,,0.00,Wunderground v.1.15,2013-03-27 21:20:00,
2013-03-27 15:25:00,76.7,25.5,29.84,ESE,113,0.0,0.0,15,0.00,,,0.00,Wunderground v.1.15,2013-03-27 21:25:00,
2013-03-27 15:35:00,76.4,25.3,29.84,ESE,107,1.0,1.0,15,0.00,,,0.00,Wunderground v.1.15,2013-03-27 21:35:00,
2013-03-27 15:40:00,76.2,25.1,29.83,SE,138,1.0,1.0,15,0.00,,,0.00,Wunderground v.1.15,2013-03-27 21:40:00,
2013-03-27 15:45:00,75.9,26.5,29.83,SE,140,0.0,1.0,16,0.00,,,0.00,Wunderground v.1.15,2013-03-27 21:45:00,
2013-03-27 15:55:00,75.5,26.1,29.83,West,271,1.0,1.0,16,0.00,,,0.00,Wunderground v.1.15,2013-03-27 21:55:00,
2013-03-27 16:00:00,75.3,26.0,29.84,ESE,103,1.0,1.0,16,0.00,,,0.00,Wunderground v.1.15,2013-03-27 22:00:00,
2013-03-27 16:05:00,75.5,26.1,29.85,WSW,249,1.0,1.0,16,0.00,,,0.00,Wunderground v.1.15,2013-03-27 22:05:00,
2013-03-27 16:15:00,76.0,25.0,29.84,West,272,1.0,1.0,15,0.00,,,0.00,Wunderground v.1.15,2013-03-27 22:15:00,
2013-03-27 16:25:00,76.7,25.5,29.83,East,82,0.0,1.0,15,0.00,,,0.00,Wunderground v.1.15,2013-03-27 22:25:00,
2013-03-27 16:30:00,76.8,25.6,29.83,West,280,1.0,1.0,15,0.00,,,0.00,Wunderground v.1.15,2013-03-27 22:30:00,
2013-03-27 16:35:00,76.9,27.3,29.83,SE,133,1.0,1.0,16,0.00,,,0.00,Wunderground v.1.15,2013-03-27 22:35:00,
2013-03-27 16:40:00,77.0,27.3,29.83,NW,307,1.0,1.0,16,0.00,,,0.00,Wunderground v.1.15,2013-03-27 22:40:00,
2013-03-27 16:45:00,77.0,25.8,29.83,West,261,1.0,1.0,15,0.00,,,0.00,Wunderground v.1.15,2013-03-27 22:45:00,
2013-03-27 16:50:00,76.8,25.6,29.83,North,360,1.0,6.0,15,0.00,,,0.00,Wunderground v.1.15,2013-03-27 22:50:00,
2013-03-27 16:55:00,76.4,25.3,29.84,WSW,257,1.0,6.0,15,0.00,,,0.00,Wunderground v.1.15,2013-03-27 22:55:00,
2013-03-27 17:00:00,76.3,25.2,29.83,West,267,1.0,1.0,15,0.00,,,0.00,Wunderground v.1.15,2013-03-27 23:00:00,
2013-03-27 17:05:00,76.5,25.4,29.83,WSW,258,0.0,1.0,15,0.00,,,0.00,Wunderground v.1.15,2013-03-27 23:05:00,
2013-03-27 17:15:00,76.7,25.5,29.83,WSW,244,1.0,1.0,15,0.00,,,0.00,Wunderground v.1.15,2013-03-27 23:15:00,
2013-03-27 17:20:00,76.8,25.6,29.83,WSW,253,1.0,2.0,15,0.00,,,0.00,Wunderground v.1.15,2013-03-27 23:20:00,
2013-03-27 17:30:00,76.5,25.4,29.83,WSW,238,1.0,1.0,15,0.00,,,0.00,Wunderground v.1.15,2013-03-27 23:30:00,
2013-03-27 17:40:00,76.3,26.8,29.83,WSW,246,0.0,0.0,16,0.00,,,0.00,Wunderground v.1.15,2013-03-27 23:40:00,
2013-03-27 17:45:00,76.1,26.6,29.83,West,277,1.0,1.0,16,0.00,,,0.00,Wunderground v.1.15,2013-03-27 23:45:00,
2013-03-27 17:50:00,76.0,26.5,29.83,NW,317,0.0,0.0,16,0.00,,,0.00,Wunderground v.1.15,2013-03-27 23:50:00,
2013-03-27 17:55:00,75.8,26.4,29.83,West,276,0.0,0.0,16,0.00,,,0.00,Wunderground v.1.15,2013-03-27 23:55:00,
2013-03-27 18:00:00,75.4,26.1,29.84,NW,317,0.0,2.0,16,0.00,,,0.00,Wunderground v.1.15,2013-03-28 00:00:00,
2013-03-27 18:05:00,74.9,25.6,29.84,West,277,0.0,2.0,16,0.00,,,0.00,Wunderground v.1.15,2013-03-28 00:05:00,
2013-03-27 18:15:00,73.9,24.8,29.85,WNW,294,0.0,0.0,16,0.00,,,0.00,Wunderground v.1.15,2013-03-28 00:15:00,
2013-03-27 18:20:00,73.5,24.5,29.85,West,280,0.0,0.0,16,0.00,,,0.00,Wunderground v.1.15,2013-03-28 00:20:00,
2013-03-27 18:25:00,73.2,24.3,29.85,WNW,290,0.0,0.0,16,0.00,,,0.00,Wunderground v.1.15,2013-03-28 00:25:00,
2013-03-27 18:35:00,72.8,24.0,29.85,WNW,290,0.0,0.0,16,0.00,,,0.00,Wunderground v.1.15,2013-03-28 00:35:00,
2013-03-27 18:45:00,72.5,25.2,29.85,WNW,290,0.0,0.0,17,0.00,,,0.00,Wunderground v.1.15,2013-03-28 00:45:00,
2013-03-27 18:50:00,72.5,25.2,29.85,WNW,290,0.0,0.0,17,0.00,,,0.00,Wunderground v.1.15,2013-03-28 00:50:00,
2013-03-27 18:55:00,72.5,25.2,29.85,WNW,290,0.0,0.0,17,0.00,,,0.00,Wunderground v.1.15,2013-03-28 00:55:00,
2013-03-27 19:00:00,72.5,25.2,29.85,WNW,290,0.0,0.0,17,0.00,,,0.00,Wunderground v.1.15,2013-03-28 01:00:00,
2013-03-27 19:05:00,72.5,25.2,29.85,WNW,290,0.0,0.0,17,0.00,,,0.00,Wunderground v.1.15,2013-03-28 01:05:00,
2013-03-27 19:15:00,72.4,25.1,29.85,WNW,290,0.0,0.0,17,0.00,,,0.00,Wunderground v.1.15,2013-03-28 01:15:00,
2013-03-27 19:20:00,72.2,24.9,29.85,WNW,290,0.0,0.0,17,0.00,,,0.00,Wunderground v.1.15,2013-03-28 01:20:00,
2013-03-27 19:25:00,71.9,26.1,29.85,WNW,290,0.0,0.0,18,0.00,,,0.00,Wunderground v.1.15,2013-03-28 01:25:00,
2013-03-27 19:30:00,71.6,25.8,29.85,WNW,290,0.0,0.0,18,0.00,,,0.00,Wunderground v.1.15,2013-03-28 01:30:00,
2013-03-27 19:35:00,71.3,25.6,29.86,WNW,290,0.0,0.0,18,0.00,,,0.00,Wunderground v.1.15,2013-03-28 01:35:00,
2013-03-27 19:40:00,71.0,25.3,29.86,WNW,290,0.0,0.0,18,0.00,,,0.00,Wunderground v.1.15,2013-03-28 01:40:00,
2013-03-27 19:50:00,70.3,24.8,29.87,WNW,290,0.0,0.0,18,0.00,,,0.00,Wunderground v.1.15,2013-03-28 01:50:00,
2013-03-27 19:55:00,70.0,25.8,29.87,WNW,290,0.0,0.0,19,0.00,,,0.00,Wunderground v.1.15,2013-03-28 01:55:00,
2013-03-27 20:00:00,69.7,25.6,29.87,WNW,290,0.0,0.0,19,0.00,,,0.00,Wunderground v.1.15,2013-03-28 02:00:00,
2013-03-27 20:05:00,69.4,25.3,29.85,WNW,290,0.0,0.0,19,0.00,,,0.00,Wunderground v.1.15,2013-03-28 02:05:00,
2013-03-27 20:15:00,68.8,26.1,29.86,WNW,290,0.0,0.0,20,0.00,,,0.00,Wunderground v.1.15,2013-03-28 02:15:00,
2013-03-27 20:25:00,68.0,24.2,29.86,WNW,290,0.0,0.0,19,0.00,,,0.00,Wunderground v.1.15,2013-03-28 02:25:00,
2013-03-27 20:30:00,67.5,23.7,29.86,WNW,290,0.0,0.0,19,0.00,,,0.00,Wunderground v.1.15,2013-03-28 02:30:00,
2013-03-27 20:35:00,67.0,23.3,29.87,WNW,290,0.0,0.0,19,0.00,,,0.00,Wunderground v.1.15,2013-03-28 02:35:00,
2013-03-27 20:40:00,66.5,22.9,29.87,WNW,290,0.0,0.0,19,0.00,,,0.00,Wunderground v.1.15,2013-03-28 02:40:00,
2013-03-27 20:50:00,65.7,22.3,29.87,WNW,290,0.0,0.0,19,0.00,,,0.00,Wunderground v.1.15,2013-03-28 02:50:00,
2013-03-27 20:55:00,65.4,22.0,29.88,WNW,290,0.0,0.0,19,0.00,,,0.00,Wunderground v.1.15,2013-03-28 02:55:00,
2013-03-27 21:00:00,65.1,21.8,29.89,WNW,290,0.0,0.0,19,0.00,,,0.00,Wunderground v.1.15,2013-03-28 03:00:00,
2013-03-27 21:05:00,64.8,22.7,29.85,WNW,290,0.0,0.0,20,0.00,,,0.00,Wunderground v.1.15,2013-03-28 03:05:00,
2013-03-27 21:15:00,64.4,22.4,29.86,WNW,290,0.0,0.0,20,0.00,,,0.00,Wunderground v.1.15,2013-03-28 03:15:00,
2013-03-27 21:20:00,64.2,22.2,29.86,WNW,290,0.0,0.0,20,0.00,,,0.00,Wunderground v.1.15,2013-03-28 03:20:00,
2013-03-27 21:25:00,64.0,22.1,29.86,WNW,290,0.0,0.0,20,0.00,,,0.00,Wunderground v.1.15,2013-03-28 03:25:00,
2013-03-27 21:35:00,63.7,21.8,29.86,WNW,290,0.0,0.0,20,0.00,,,0.00,Wunderground v.1.15,2013-03-28 03:35:00,
2013-03-27 21:40:00,63.6,21.7,29.86,WNW,290,0.0,0.0,20,0.00,,,0.00,Wunderground v.1.15,2013-03-28 03:40:00,
2013-03-27 21:50:00,63.2,21.4,29.88,WNW,290,0.0,0.0,20,0.00,,,0.00,Wunderground v.1.15,2013-03-28 03:50:00,
2013-03-27 21:55:00,63.1,22.5,29.88,WNW,290,0.0,0.0,21,0.00,,,0.00,Wunderground v.1.15,2013-03-28 03:55:00,
2013-03-27 22:00:00,62.8,22.2,29.88,North,360,0.0,0.0,21,0.00,,,0.00,Wunderground v.1.15,2013-03-28 04:00:00,
2013-03-27 22:05:00,62.6,22.1,29.85,North,360,0.0,0.0,21,0.00,,,0.00,Wunderground v.1.15,2013-03-28 04:05:00,
2013-03-27 22:10:00,62.5,22.0,29.85,North,5,0.0,0.0,21,0.00,,,0.00,Wunderground v.1.15,2013-03-28 04:10:00,
2013-03-27 22:15:00,62.4,21.9,29.86,North,360,0.0,0.0,21,0.00,,,0.00,Wunderground v.1.15,2013-03-28 04:15:00,
2013-03-27 22:20:00,62.3,21.8,29.86,North,5,0.0,0.0,21,0.00,,,0.00,Wunderground v.1.15,2013-03-28 04:20:00,
2013-03-27 22:25:00,62.1,22.8,29.87,North,360,0.0,0.0,22,0.00,,,0.00,Wunderground v.1.15,2013-03-28 04:25:00,
2013-03-27 22:30:00,61.9,22.6,29.87,North,360,0.0,0.0,22,0.00,,,0.00,Wunderground v.1.15,2013-03-28 04:30:00,
2013-03-27 22:40:00,61.5,22.3,29.87,North,360,0.0,0.0,22,0.00,,,0.00,Wunderground v.1.15,2013-03-28 04:40:00,
2013-03-27 22:45:00,61.4,22.2,29.87,North,360,0.0,0.0,22,0.00,,,0.00,Wunderground v.1.15,2013-03-28 04:45:00,
2013-03-27 22:55:00,60.9,21.8,29.87,North,360,0.0,0.0,22,0.00,,,0.00,Wunderground v.1.15,2013-03-28 04:55:00,
2013-03-27 23:00:00,60.7,22.6,29.87,North,360,0.0,0.0,23,0.00,,,0.00,Wunderground v.1.15,2013-03-28 05:00:00,
2013-03-27 23:05:00,60.5,21.4,29.85,North,360,0.0,0.0,22,0.00,,,0.00,Wunderground v.1.15,2013-03-28 05:05:00,
2013-03-27 23:15:00,60.0,22.0,29.86,North,360,0.0,0.0,23,0.00,,,0.00,Wunderground v.1.15,2013-03-28 05:15:00,
2013-03-27 23:20:00,59.8,21.9,29.86,North,360,0.0,0.0,23,0.00,,,0.00,Wunderground v.1.15,2013-03-28 05:20:00,
2013-03-27 23:25:00,59.5,21.6,29.86,North,360,0.0,0.0,23,0.00,,,0.00,Wunderground v.1.15,2013-03-28 05:25:00,
2013-03-27 23:30:00,59.3,21.5,29.86,North,360,0.0,0.0,23,0.00,,,0.00,Wunderground v.1.15,2013-03-28 05:30:00,
2013-03-27 23:35:00,59.1,21.3,29.86,North,360,0.0,0.0,23,0.00,,,0.00,Wunderground v.1.15,2013-03-28 05:35:00,
2013-03-27 23:40:00,59.0,21.2,29.86,North,360,0.0,0.0,23,0.00,,,0.00,Wunderground v.1.15,2013-03-28 05:40:00,
2013-03-27 23:50:00,58.9,21.1,29.86,North,360,0.0,0.0,23,0.00,,,0.00,Wunderground v.1.15,2013-03-28 05:50:00,
2013-03-27 23:55:00,58.7,22.0,29.86,North,360,0.0,0.0,24,0.00,,,0.00,Wunderground v.1.15,2013-03-28 05:55:00,